User: anonymous
Location: Caltech
(34.1382°N, 118.1253°W)
Time: 03:16:27
(UTC-07:00)
Language:

ALOS - Orbit

View from above orbital plane
View from above orbital plane
View from above satellite
View from above satellite

Ground track
Ground track

The orbit data is extracted from the following two-line orbital elements,

1 28931U 06002A   14242.48676770  .00000362  00000-0  82476-4 0   273
2 28931 097.9765 297.9370 0000452 095.5203 018.2351 14.61256570458172
Epoch (UTC): 30 August 2014 11:40:56
Eccentricity: 0.0000452
inclination: 97.9765°
perigee height: 689 km
apogee height: 689 km
right ascension of ascending node: 297.9370°
argument of perigee: 95.5203°
revolutions per day: 14.61256570
mean anomaly at epoch: 18.2351°
orbit number at epoch: 45817

The dashed part of the orbit path shows where the satellite is in the earth's shadow,  

DLR